Lapse_Rate
7.2 7.2 7.2 7.3 7.3 7.4 7.4 7.3 7.3 7.3 7.4 7.5 7.6 7.7 7.8 7.8 7.8 7.2 7.6 7.7 7.6 7.6 7.6 7.9 7.9 7.5 7.5 7.6 7.8 8.0 8.4 9.4 8.7 9.2 8.1 7.2 7.1 6.4 6.2 6.5 6.7 7.0 6.3 6.7 6.7
7.2 7.3 7.3 7.3 7.3 7.4 7.5 7.6 7.6 7.7 7.7 7.7 7.6 7.6 7.5 7.4 7.3 7.5 7.6 7.5 7.6 7.7 7.8 7.5 7.6 7.5 7.9 8.2 8.2 8.3 9.0 8.5 7.7 7.7 7.8 7.6 7.5 7.0 6.3 5.6 6.2 6.3 6.1 6.5 6.5
7.4 7.4 7.5 7.5 7.5 7.5 7.6 7.6 7.6 7.6 7.6 7.6 7.6 7.6 7.5 7.3 7.3 7.4 7.4 7.5 7.6 7.6 7.9 7.2 7.5 7.7 8.3 8.2 8.2 8.0 8.1 8.1 7.3 7.8 7.8 7.5 6.6 7.2 7.0 6.1 6.0 6.1 5.9 6.1 6.5
7.5 7.6 7.5 7.5 7.6 7.6 7.6 7.6 7.6 7.6 7.6 7.6 7.4 7.3 7.4 7.5 6.9 7.3 7.5 7.7 7.9 7.8 7.4 7.4 7.8 8.0 8.1 8.2 8.1 8.3 7.7 7.7 7.0 8.2 7.6 7.3 6.5 6.5 7.1 5.6 5.4 5.0 5.4 5.7 5.9
7.7 7.7 7.7 7.7 7.6 7.6 7.6 7.6 7.6 7.7 7.6 7.5 7.4 7.4 7.5 7.5 7.5 7.5 7.9 7.9 7.9 7.8 7.8 7.8 7.7 7.7 7.9 8.0 7.9 8.1 7.6 7.4 7.0 7.2 7.0 6.7 6.3 5.8 6.0 5.8 4.9 4.5 4.7 4.9 5.0
7.6 7.6 7.6 7.6 7.5 7.6 7.6 7.6 7.6 7.5 7.4 7.3 7.4 7.5 7.7 7.9 7.7 7.6 7.6 7.6 7.6 7.6 7.7 7.7 7.7 7.5 7.4 7.2 7.5 7.6 7.6 7.2 7.1 6.9 6.8 7.1 6.7 6.1 4.9 4.9 4.6 4.5 4.0 4.0 4.5
7.6 7.6 7.5 7.5 7.4 7.4 7.5 7.5 7.4 7.4 7.3 7.4 7.6 7.6 7.6 7.6 7.4 7.6 7.4 7.4 7.4 7.5 7.6 7.5 7.4 7.4 7.1 7.4 7.3 7.4 7.4 7.4 7.1 6.5 6.6 6.1 7.4 5.4 4.6 4.5 4.4 4.1 3.9 3.6 3.6
7.5 7.4 7.4 7.4 7.3 7.3 7.3 7.3 7.3 7.4 7.5 7.5 8.0 7.3 7.9 7.4 7.4 7.3 7.2 7.1 7.2 7.3 7.2 6.4 6.9 7.2 7.4 7.1 7.2 7.5 7.9 8.5 9.0 8.6 7.0 5.9 7.1 5.6 4.4 4.2 3.9 3.9 3.8 3.7 3.4
7.3 7.3 7.4 7.3 7.2 7.1 7.1 7.0 7.2 7.3 7.4 7.6 7.6 7.1 7.3 6.7 7.2 7.3 7.2 6.5 6.9 6.5 5.9 5.8 6.5 6.5 7.4 7.8 8.2 8.2 7.3 7.3 7.6 8.2 7.5 6.8 7.0 7.0 5.5 4.3 3.6 3.3 3.4 3.6 3.4
7.2 7.2 7.2 7.1 7.1 7.0 6.9 6.8 7.1 7.2 7.3 7.2 6.8 6.7 7.0 7.1 7.2 7.1 6.9 6.1 6.0 5.7 5.9 6.2 5.9 5.3 4.9 5.0 5.1 5.4 5.8 6.1 6.7 7.0 8.0 7.9 7.8 8.0 6.5 5.2 4.4 3.9 3.7 3.6 3.4
7.2 7.2 7.1 6.9 6.9 6.9 6.8 7.1 6.6 7.3 7.2 7.1 7.1 7.1 7.0 7.0 6.7 7.0 7.2 6.3 6.1 6.3 5.9 5.7 6.0 4.7 4.8 5.0 5.0 5.4 5.8 6.5 7.2 7.3 7.7 7.9 7.9 8.6 7.6 6.4 5.6 5.3 5.1 4.5 3.8
7.2 7.1 6.8 6.8 6.8 6.9 6.8 6.5 6.6 7.1 7.4 7.2 7.2 7.2 7.1 6.9 6.8 6.7 6.6 6.1 5.5 5.2 6.0 5.7 4.4 4.6 4.7 4.9 5.1 5.5 6.1 6.4 6.9 7.0 7.7 8.9 9.5 8.2 7.9 7.8 7.1 6.8 6.1 5.4 5.0
7.1 7.0 6.8 6.8 6.8 6.9 7.0 6.7 6.9 7.2 6.3 7.0 7.2 7.2 6.9 7.0 6.8 6.4 6.5 5.6 5.3 5.4 4.9 4.5 4.4 4.6 4.6 4.9 5.0 5.8 6.0 6.5 7.1 8.5 9.6 9.3 8.5 7.7 8.0 7.9 7.8 7.4 7.1 6.8 5.9
6.9 6.8 6.8 6.7 6.8 6.9 6.9 6.9 7.0 7.0 6.9 6.3 6.7 6.8 6.8 6.7 6.1 5.9 6.0 5.3 5.4 5.3 5.1 4.8 4.7 4.4 4.5 4.7 4.9 5.8 6.0 6.9 7.7 9.5 9.6 8.9 7.6 7.4 8.0 7.8 7.5 7.5 7.3 7.1 7.0
6.8 6.7 6.8 6.7 6.9 6.9 6.9 7.0 7.1 7.0 7.6 6.5 6.8 7.0 6.7 6.5 5.9 5.8 5.7 5.0 4.6 4.5 5.1 4.4 4.2 4.3 4.5 4.5 4.9 5.4 6.3 7.3 8.6 9.6 9.3 8.7 8.6 7.4 7.7 7.7 7.6 7.6 7.5 7.4 7.2
6.8 6.7 6.7 6.8 6.9 7.0 7.0 7.1 7.1 6.9 6.9 6.2 6.3 6.0 5.6 6.2 6.0 5.5 5.1 5.4 5.4 5.1 5.1 4.7 4.3 4.8 4.7 4.8 4.9 5.1 6.0 7.3 9.0 8.9 8.0 7.7 8.5 7.5 7.3 7.5 7.8 7.8 7.8 7.6 7.4
6.8 6.7 6.8 6.9 7.1 7.1 7.1 7.1 6.9 7.0 6.8 6.4 6.0 6.2 5.8 6.2 5.8 5.2 5.2 5.3 5.0 5.5 6.0 5.9 4.9 4.5 5.3 4.1 4.6 5.0 5.4 6.7 7.5 8.9 9.1 7.9 8.7 7.7 7.6 8.0 8.0 7.9 7.9 7.7 7.5
6.8 6.8 6.8 7.0 7.1 7.2 7.2 7.1 7.1 6.8 6.6 6.9 6.6 6.0 6.0 6.0 5.3 5.1 5.3 5.1 5.5 5.6 5.6 5.7 5.8 5.4 4.1 4.0 4.4 5.5 6.2 6.8 6.9 7.8 9.3 8.4 8.2 8.1 8.0 7.9 8.1 8.1 8.2 7.9 7.6
6.8 6.8 6.8 7.0 7.1 7.2 7.1 6.7 6.7 6.9 6.6 6.4 6.2 6.2 6.2 5.5 5.5 5.2 5.0 4.7 4.9 5.2 4.9 4.7 5.4 4.6 4.6 4.6 4.6 5.3 5.9 6.3 6.8 8.0 9.2 9.4 8.2 7.8 7.9 8.2 8.3 8.5 8.3 8.1 7.7
6.8 6.9 6.8 7.0 7.1 7.2 7.0 7.0 7.0 7.3 7.0 6.7 6.5 6.2 6.4 5.7 5.6 5.5 5.0 5.2 4.7 4.8 4.2 4.5 4.8 5.1 4.8 4.7 5.3 5.4 5.6 5.8 6.6 7.6 7.7 8.3 9.2 8.5 8.3 8.2 8.4 8.5 8.1 7.9 7.6
6.8 6.9 6.8 6.9 7.0 6.9 6.5 7.2 7.3 7.2 7.0 6.8 6.1 5.9 5.7 5.7 5.4 5.2 4.8 4.8 4.9 4.7 4.6 4.3 4.4 5.3 5.4 5.2 5.5 5.5 5.4 6.2 6.8 7.9 7.4 7.5 8.2 8.1 8.0 7.3 7.8 7.8 7.8 7.6 7.4
6.7 6.4 6.8 6.9 6.9 6.8 7.1 7.4 7.3 7.0 6.9 6.8 6.7 6.3 5.9 5.8 5.2 5.0 4.7 4.9 4.9 4.9 4.1 4.2 4.3 4.6 5.5 5.6 5.4 4.9 5.8 6.3 6.6 6.8 6.8 7.7 7.7 7.3 7.5 7.7 8.1 7.8 7.5 7.3 7.1
6.7 6.9 6.8 6.9 7.0 7.2 7.2 7.1 7.1 6.9 6.8 6.7 6.5 6.3 6.0 5.5 5.1 4.9 4.5 5.3 5.1 4.9 5.0 4.8 4.5 4.9 5.7 4.6 4.8 5.6 5.9 6.2 6.4 6.4 6.7 7.2 7.6 7.2 7.0 6.8 6.8 6.8 7.0 6.9 6.9
6.7 6.6 6.8 6.9 7.0 7.1 7.0 7.0 6.9 6.8 6.9 6.6 6.4 6.2 6.1 5.0 4.9 4.7 4.4 4.6 4.9 4.8 4.8 4.6 3.9 4.1 4.7 4.8 5.0 5.5 5.5 5.6 5.7 5.9 6.5 6.6 6.8 6.5 6.0 5.8 6.2 6.4 6.5 6.7 6.7
6.7 6.8 6.9 7.1 7.0 7.0 6.9 6.9 6.9 6.8 6.8 6.6 6.4 6.1 5.7 5.0 4.9 4.6 4.2 3.9 4.3 4.9 4.4 4.2 3.9 4.4 4.7 4.9 5.4 5.6 5.2 5.3 5.5 5.5 5.7 6.1 5.9 5.9 5.7 5.7 5.3 5.7 6.3 6.5 6.8
6.7 6.7 6.8 6.9 7.0 7.0 7.0 6.7 6.7 6.8 6.7 6.6 6.2 5.7 5.9 5.4 4.9 5.1 4.5 4.2 4.0 3.8 4.2 3.3 3.6 3.8 4.2 4.8 5.2 5.0 4.8 5.0 5.4 5.9 6.1 6.1 5.9 6.1 5.9 5.6 5.6 5.5 5.8 6.4 6.6
6.6 6.6 6.6 6.8 6.9 6.7 6.8 6.7 6.2 6.7 6.5 6.4 6.3 6.0 5.8 5.8 5.7 5.6 5.5 5.3 5.0 4.8 3.6 3.6 3.7 3.8 4.5 4.7 4.6 4.9 5.7 5.8 5.5 5.4 5.3 5.5 5.5 5.3 5.8 5.5 5.3 5.2 5.4 5.7 6.0
Wind_Speed
14 13 13 13 13 12 11 10 11 12 13 14 14 20 22 17 17 21 17 9 9 27 19 16 17 6 12 10 6 9 9 6 18 14 13 17 17 13 18 19 19 19 15 13 16
13 12 12 12 13 11 11 11 11 12 16 14 11 11 16 9 6 26 18 27 23 21 14 13 13 13 9 7 3 10 8 13 13 13 10 16 17 11 8 18 17 16 15 15 17
13 12 12 12 12 12 11 10 10 12 16 19 16 11 8 7 4 20 32 34 28 22 18 17 9 10 6 3 7 9 9 12 14 13 9 20 19 18 14 15 14 15 15 16 18
13 13 12 11 11 11 11 12 13 13 14 22 22 16 16 7 5 15 28 26 27 18 15 13 13 8 5 7 8 6 7 9 12 12 11 13 13 18 18 12 13 13 15 17 18
12 11 10 9 9 9 10 12 16 17 19 20 19 13 2 24 12 14 21 25 19 19 22 20 15 10 10 13 11 8 6 5 7 9 11 3 11 15 15 10 13 14 16 17 17
12 10 9 9 9 9 9 10 11 15 15 18 23 18 17 24 15 12 17 15 17 18 20 18 14 10 4 5 8 7 5 4 3 6 8 10 11 8 13 11 15 16 17 17 17
11 11 9 8 8 8 8 6 7 7 6 7 10 5 26 16 14 17 13 15 15 16 16 19 12 14 15 9 6 10 9 12 10 6 5 9 4 14 14 15 16 16 16 16 18
11 11 9 8 7 3 0 2 2 6 10 12 12 20 13 11 17 14 9 6 11 15 13 14 21 15 20 10 11 6 10 11 13 4 12 9 7 11 13 15 17 19 17 16 18
13 12 12 10 4 2 6 6 6 7 9 13 5 9 10 18 18 15 15 8 3 10 17 13 18 21 22 20 16 15 11 17 18 13 13 11 13 15 14 15 17 17 18 17 17
14 12 12 8 4 6 10 5 8 7 8 8 11 12 12 13 16 15 13 11 4 9 18 19 10 15 14 15 11 12 15 13 14 15 20 16 13 11 13 16 15 15 16 17 18
15 12 10 9 4 6 11 7 5 8 18 18 13 14 13 4 18 18 15 16 15 17 11 21 16 18 19 16 14 14 16 15 15 21 19 15 13 15 12 12 13 14 16 16 16
15 11 9 6 7 10 8 6 9 9 12 14 15 11 9 15 11 20 17 8 11 14 18 6 18 17 15 15 15 16 15 19 19 19 16 18 5 15 10 12 13 15 14 15 16
16 11 7 4 6 6 5 4 8 8 3 7 9 12 7 8 15 20 16 9 9 8 14 15 12 15 16 16 18 15 18 19 24 22 17 16 9 9 6 11 12 14 13 15 17
16 11 5 2 0 7 2 3 5 5 4 4 8 6 14 1 7 15 11 11 12 9 4 8 11 15 16 18 18 13 22 24 24 17 7 7 3 2 4 9 12 13 12 13 14
17 12 5 4 1 3 5 1 3 2 3 3 5 2 10 9 8 12 9 3 6 8 8 4 8 14 18 18 17 20 24 23 17 6 4 8 3 3 10 9 11 11 11 12 11
12 11 8 4 3 4 3 1 2 4 3 4 3 3 5 8 8 5 11 9 2 4 13 12 10 11 15 12 13 19 23 17 11 7 3 9 8 3 3 6 9 11 12 13 14
8 11 7 7 3 1 2 3 1 4 0 4 3 2 1 7 7 8 8 17 13 10 11 7 11 9 15 12 9 20 20 8 10 9 8 5 9 4 1 4 7 10 12 13 12
6 9 7 7 5 2 3 4 6 2 4 3 1 2 3 7 4 3 10 9 14 15 7 8 4 11 10 8 13 16 14 7 13 11 13 6 4 2 8 6 8 9 10 12 14
8 3 2 4 4 3 4 5 0 5 3 1 3 6 6 5 3 4 5 8 7 12 7 7 3 3 6 6 10 9 13 10 11 11 9 5 3 4 7 7 9 9 11 12 14
4 3 3 3 3 2 2 0 2 3 2 1 4 3 5 5 3 6 8 4 4 6 7 7 6 2 7 3 8 7 9 8 8 6 13 12 6 0 4 6 9 11 12 12 14
3 3 2 1 2 4 2 4 5 5 3 4 2 2 2 4 3 3 3 4 2 5 4 8 4 8 12 2 6 5 8 6 8 3 10 9 11 5 4 7 8 9 12 12 14
3 1 2 1 1 3 3 4 3 6 1 2 2 3 3 3 3 2 4 4 4 4 6 5 4 10 7 6 3 7 7 8 7 11 11 10 4 1 2 10 12 13 13 12 14
3 3 2 2 3 1 5 6 2 5 3 2 2 2 1 2 3 1 2 5 2 4 6 9 2 6 4 5 8 10 10 11 10 8 11 11 6 5 14 11 13 14 12 11 14
4 2 2 4 2 7 7 6 4 2 4 1 2 1 2 4 3 3 2 4 2 3 5 2 5 7 7 12 14 13 12 12 8 9 11 12 16 16 16 10 13 11 10 11 14
1 1 2 2 2 6 5 7 7 4 3 5 3 6 2 3 4 5 1 4 9 9 3 3 6 10 12 18 15 4 13 14 11 8 10 12 14 15 9 8 4 6 9 12 12
1 0 3 2 5 6 2 7 8 4 7 5 5 4 3 3 2 5 6 6 6 10 5 7 7 13 17 3 3 15 14 13 14 8 7 11 16 7 15 13 11 10 9 8 11
0 1 3 2 6 5 5 6 7 7 2 5 4 2 5 3 4 6 6 7 8 6 8 8 6 9 6 8 10 13 4 10 10 8 4 9 12 10 9 10 12 11 9 5 9
Wind_Direction
19 20 21 21 20 19 15 7 359 345 323 321 320 310 305 310 306 36 29 315 289 300 310 273 260 274 265 269 273 288 275 327 19 35 74 43 47 73 94 67 58 52 49 13 7
16 17 18 16 19 17 12 1 353 336 319 318 307 298 295 319 330 30 347 337 324 311 318 340 341 314 270 289 337 294 314 50 32 20 13 83 57 9 58 52 42 40 35 24 17
14 11 12 11 11 9 3 356 358 351 347 338 330 313 306 298 356 16 341 326 313 302 283 290 274 292 311 12 351 26 6 349 34 8 359 107 74 41 33 44 36 30 24 26 21
10 7 5 5 5 2 355 351 351 355 356 341 344 325 297 217 73 5 328 313 307 349 11 359 355 352 346 342 4 305 53 33 42 21 30 27 86 62 48 43 40 39 31 26 26
9 5 1 358 357 357 349 344 342 344 343 341 344 314 42 58 32 9 348 12 26 24 24 14 15 341 14 345 343 310 97 56 72 65 32 26 72 78 46 20 43 36 34 30 25
5 359 357 357 350 346 346 347 333 327 338 339 19 67 66 64 7 11 15 24 26 24 34 22 7 342 331 6 340 356 336 139 32 51 76 14 78 36 40 24 41 35 29 26 22
7 5 0 352 347 342 342 334 310 316 330 337 317 7 52 36 19 357 56 41 33 31 29 22 7 25 338 343 341 303 261 223 193 72 72 30 203 68 35 31 33 27 26 21 21
16 15 3 359 350 336 245 189 174 287 297 302 306 81 72 39 12 7 7 26 30 41 51 38 36 25 6 312 256 249 277 267 134 177 93 48 97 75 48 38 28 15 13 11 14
16 13 10 9 352 188 187 204 233 268 280 288 296 99 57 30 25 2 356 16 125 52 29 45 33 41 18 355 18 48 342 333 322 0 3 11 324 103 57 40 28 17 7 5 9
10 9 13 19 321 303 297 300 295 266 247 235 5 122 35 35 25 6 358 16 75 140 62 40 42 35 42 31 19 329 315 307 297 350 343 324 308 69 44 35 28 17 17 6 1
7 4 360 19 4 342 318 274 203 54 55 67 60 73 37 42 42 19 350 36 31 37 51 47 39 31 16 24 0 323 320 307 336 342 319 300 276 86 51 52 38 26 19 17 5
1 358 346 359 0 311 300 344 48 135 83 70 80 80 45 43 28 22 354 25 67 64 20 96 36 14 13 20 355 343 354 338 318 318 304 288 355 57 52 53 36 26 13 2 6
355 348 330 318 318 295 339 59 58 4 120 91 78 38 33 41 34 17 3 349 4 54 73 66 33 11 19 14 358 342 357 324 312 305 278 323 86 50 32 48 35 30 16 4 2
359 351 347 244 54 225 201 158 45 357 196 75 30 34 12 43 64 22 359 4 48 9 108 61 29 15 19 12 0 349 336 321 308 288 352 341 88 152 29 31 24 19 13 14 5
4 355 351 257 44 190 105 76 359 256 241 63 73 325 62 58 328 19 48 356 62 41 44 66 21 20 20 3 5 346 334 323 313 344 70 358 71 329 30 8 7 7 3 5 9
356 358 320 246 21 62 119 316 279 238 74 116 86 32 48 58 40 14 51 26 253 294 111 105 94 46 16 6 7 347 353 352 31 71 75 337 320 120 47 334 353 354 359 359 360
340 14 4 17 65 96 248 226 229 79 219 110 67 15 54 29 28 23 349 45 32 353 352 135 66 94 24 9 354 6 9 1 6 357 354 301 312 161 238 329 353 355 2 358 356
305 323 63 49 7 2 240 221 78 37 43 83 41 176 61 2 105 1 18 27 31 3 316 346 294 34 18 20 349 11 16 14 327 335 309 45 350 26 232 13 345 349 3 358 359
299 208 81 23 342 305 254 51 58 26 57 147 200 282 119 115 292 286 73 22 42 18 10 3 18 110 70 353 21 352 13 341 336 318 322 353 115 351 287 353 347 349 1 356 356
278 181 56 342 357 258 245 152 111 42 94 246 328 352 354 24 274 5 22 36 16 49 334 3 297 161 129 282 43 28 2 341 347 318 326 332 338 207 256 318 344 353 353 353 354
257 214 44 32 310 240 130 84 123 78 4 339 33 292 22 350 338 4 50 114 35 351 312 332 276 303 295 131 23 347 0 350 324 322 330 320 321 131 236 287 319 342 345 347 348
273 206 61 211 226 46 118 127 86 142 72 100 36 16 341 350 310 356 359 29 47 344 334 44 300 290 337 119 109 270 353 334 329 324 317 304 324 317 266 341 342 340 332 337 337
265 96 142 237 124 115 136 123 103 169 167 169 119 348 40 334 307 256 29 93 106 318 9 354 324 310 167 181 203 301 326 327 313 309 284 321 314 160 347 358 336 324 333 329 315
284 49 128 218 180 160 161 168 143 320 122 183 105 218 216 228 159 304 277 129 193 275 79 342 262 252 263 287 285 301 310 311 299 283 309 286 311 331 322 328 315 324 314 299 314
99 314 65 263 242 171 201 160 151 176 237 207 186 245 272 282 270 233 235 212 188 159 215 243 281 295 299 292 291 308 295 293 279 258 267 289 299 295 310 284 313 309 310 304 314
346 257 197 155 161 156 130 213 187 128 163 195 254 146 232 271 294 298 329 280 260 150 218 228 271 298 295 297 201 287 279 268 272 288 284 294 288 319 322 342 327 314 310 304 309
47 213 276 136 187 201 204 181 200 148 190 326 233 241 228 5 9 330 309 291 278 265 250 251 292 308 283 311 271 277 263 231 263 281 297 278 278 303 323 311 289 272 287 311 293